TimeIST,TemperatureF,Dew PointF,Humidity,Sea Level PressureIn,VisibilityMPH,Wind Direction,Wind SpeedMPH,Gust SpeedMPH,PrecipitationIn,Events,Conditions,WindDirDegrees,DateUTC
12:00 AM,59.0,50.0,72,29.98,1.2,Variable,10.4,-,N/A,,Haze,0,2013-01-17 18:30:00
1:00 AM,59.0,48.2,67,29.95,1.2,ENE,9.2,-,N/A,,Haze,60,2013-01-17 19:30:00
2:00 AM,57.2,50.0,77,29.95,1.2,ENE,9.2,-,N/A,,Haze,70,2013-01-17 20:30:00
2:30 AM,,50,,29.92,1,North,39.1,,,,Haze,10,2013-01-17 21:00:00
3:00 AM,55.4,50.0,82,29.92,1.2,East,4.6,-,N/A,,Scattered Clouds,90,2013-01-17 21:30:00
4:00 AM,55.4,50.0,82,29.92,1.2,NE,8.1,-,N/A,,Scattered Clouds,40,2013-01-17 22:30:00
5:00 AM,57.2,50.0,77,29.92,1.6,East,5.8,-,N/A,,Scattered Clouds,80,2013-01-17 23:30:00
5:30 AM,57,50,70,29.92,1,ENE,6.9,,,,Mist,70,2013-01-18 00:00:00
5:30 AM,57.2,50.0,77,29.92,1.6,ENE,6.9,-,N/A,,Scattered Clouds,70,2013-01-18 00:00:00
6:00 AM,55.4,50.0,82,29.92,1.6,East,8.1,-,N/A,,Scattered Clouds,80,2013-01-18 00:30:00
7:00 AM,57.2,50.0,77,29.92,1.6,Variable,9.2,-,N/A,,Scattered Clouds,0,2013-01-18 01:30:00
8:00 AM,57.2,51.8,82,29.95,1.2,Variable,3.5,-,N/A,,Drizzle,0,2013-01-18 02:30:00
8:30 AM,57,52,77,29.94,1,Calm,Calm,,,,Mist,,2013-01-18 03:00:00
9:00 AM,59.0,50.0,72,29.98,1.2,East,5.8,-,N/A,,Overcast,80,2013-01-18 03:30:00
10:00 AM,60.8,51.8,72,29.98,1.9,Variable,4.6,-,N/A,,Haze,0,2013-01-18 04:30:00
11:00 AM,60.8,53.6,77,30.01,1.9,WNW,10.4,-,N/A,,Haze,300,2013-01-18 05:30:00
11:30 AM,59.0,51.8,77,29.98,1.9,WNW,13.8,-,N/A,,Mostly Cloudy,290,2013-01-18 06:00:00
12:00 PM,57.2,51.8,82,29.98,1.9,WNW,16.1,-,N/A,,Haze,290,2013-01-18 06:30:00
12:30 PM,59.0,50.0,72,29.98,1.9,West,142.7,-,N/A,,Haze,260,2013-01-18 07:00:00
1:00 PM,60.8,50.0,68,29.95,1.9,West,15.0,-,N/A,,Haze,280,2013-01-18 07:30:00
2:00 PM,60.8,48.2,63,29.95,1.9,West,19.6,-,N/A,,Haze,280,2013-01-18 08:30:00
3:00 PM,64.4,48.2,56,29.95,2.5,West,18.4,-,N/A,,Haze,280,2013-01-18 09:30:00
4:00 PM,60.8,46.4,59,29.98,2.5,West,19.6,-,N/A,,Haze,280,2013-01-18 10:30:00
5:00 PM,59.0,46.4,63,29.98,2.5,West,16.1,-,N/A,,Haze,280,2013-01-18 11:30:00
5:30 PM,59,46,52,29.98,2,WNW,13.8,,,,Haze,290,2013-01-18 12:00:00
6:00 PM,57.2,46.4,67,30.01,2.5,WNW,11.5,-,N/A,,Haze,290,2013-01-18 12:30:00
7:00 PM,55.4,46.4,72,30.04,1.9,West,6.9,-,N/A,,Haze,270,2013-01-18 13:30:00
8:00 PM,53.6,46.4,77,30.06,1.9,West,5.8,-,N/A,,Haze,270,2013-01-18 14:30:00
8:30 PM,54,48,73,30.07,1,WNW,4.6,,,,Mist,290,2013-01-18 15:00:00
9:00 PM,53.6,48.2,82,30.09,1.6,Variable,2.3,-,N/A,,Partly Cloudy,0,2013-01-18 15:30:00
10:00 PM,53.6,48.2,82,30.12,1.6,WNW,4.6,-,N/A,,Partly Cloudy,300,2013-01-18 16:30:00
11:00 PM,53.6,46.4,77,30.12,1.6,NW,4.6,-,N/A,,Partly Cloudy,310,2013-01-18 17:30:00